Location: Unspecified
(0.0000°N, 0.0000°E)
Time: 09:10:23
(UTC+00:00)

Vanguard 3 - Visible Passes

Search period start: 31 October 2014 00:00
Search period end: 10 November 2014 00:00
Orbit: 508 x 3278 km, 33.3° (Epoch: 29 October)

Date Brightness Start Highest point End Pass type
(mag) Time Alt. Az. Time Alt. Az. Time Alt. Az.
31 Oct 10.5 18:57:27 10° WSW 19:16:08 47° NW 19:28:21 16° NNE visible
31 Oct 10.9 21:25:16 10° WNW 21:33:03 15° NNW 21:33:06 15° NNW visible
01 Nov 7.8 04:20:07 22° N 04:21:24 27° NE 04:24:37 10° E visible
01 Nov 10.4 17:41:18 10° WSW 18:01:06 68° NW 18:17:54 10° NE visible
01 Nov 10.5 20:03:50 10° W 20:18:19 27° NW 20:25:18 19° N visible
02 Nov 10.7 18:45:16 10° W 19:03:22 41° NW 19:17:28 11° NNE visible
02 Nov 10.9 21:14:21 10° NW 21:21:18 14° NNW 21:22:12 14° NNW visible
03 Nov 6.8 04:09:33 44° NNE 04:09:49 45° NE 04:13:21 10° ESE visible
03 Nov 10.7 19:52:18 10° WNW 20:06:05 24° NNW 20:14:19 15° N visible
04 Nov 7.3 05:06:36 11° W 05:09:42 30° SW 05:13:09 10° SSE visible
04 Nov 10.8 18:33:18 10° W 18:50:42 37° NNW 19:05:19 10° NNE visible
04 Nov 11.0 21:03:26 10° NW 21:09:42 13° NNW 21:11:08 13° NNW visible
05 Nov 6.7 03:58:54 58° ESE 03:58:54 58° ESE 04:01:52 10° ESE visible
05 Nov 10.8 19:40:59 10° WNW 19:54:00 21° NNW 20:03:11 13° NNE visible
06 Nov 8.0 04:55:55 13° WSW 04:58:05 19° SW 05:00:47 10° SSE visible
06 Nov 10.9 18:21:36 10° W 18:38:10 32° NNW 18:52:46 10° NNE visible
06 Nov 11.0 20:52:16 10° NW 20:58:13 12° NNW 20:59:56 12° N visible
07 Nov 7.8 03:48:09 32° SSE 03:48:09 32° SSE 03:50:13 10° SE visible
07 Nov 10.9 19:29:49 10° WNW 19:42:04 19° NNW 19:51:54 11° NNE visible
08 Nov 8.5 04:45:07 11° SW 04:46:24 12° SW 04:47:55 10° S visible
08 Nov 11.0 18:10:08 10° W 18:25:48 29° NNW 18:40:10 10° NNE visible
08 Nov 11.0 20:40:40 10° NW 20:46:50 13° NNW 20:48:35 12° N visible
09 Nov 8.7 03:37:18 18° SSE 03:37:18 18° SSE 03:38:24 10° SSE visible
09 Nov 10.9 19:18:44 10° NW 19:30:18 18° NNW 19:40:19 10° NNE visible
